| time (UTC) | temp C | wind direction | speed KPH | gust KPH | rain 1hr cm | rain 24hr cm | rain mn cm | humidity % | barometer mb |
| 20260504214607 | 22 | 163 | 9.7 | 25.7 | 0.00 | 0.00 | 0.00 | 40 | 1009.9 |
| 20260504213057 | 22 | 176 | 12.9 | 30.6 | 0.00 | 0.00 | 0.00 | 38 | 1009.9 |
| 20260504211555 | 22 | 163 | 6.4 | 22.5 | 0.00 | 0.00 | 0.00 | 40 | 1009.9 |
| 20260504210059 | 22 | 147 | 11.3 | 24.1 | 0.00 | 0.00 | 0.00 | 39 | 1009.9 |
| 20260504204557 | 22 | 193 | 9.7 | 20.9 | 0.00 | 0.00 | 0.00 | 42 | 1010.0 |
| 20260504203056 | 22 | 123 | 6.4 | 24.1 | 0.00 | 0.00 | 0.00 | 42 | 1010.2 |
| 20260504201547 | 22 | 181 | 8.0 | 24.1 | 0.00 | 0.00 | 0.00 | 41 | 1010.3 |
| 20260504200044 | 21 | 221 | 14.5 | 27.4 | 0.00 | 0.00 | 0.00 | 41 | 1010.6 |
| 20260504194547 | 21 | 161 | 6.4 | 22.5 | 0.00 | 0.00 | 0.00 | 43 | 1010.8 |
| 20260504193040 | 22 | 127 | 9.7 | 22.5 | 0.00 | 0.00 | 0.00 | 41 | 1011.1 |
| 20260504191537 | 21 | 173 | 8.0 | 20.9 | 0.00 | 0.00 | 0.00 | 41 | 1011.5 |
| 20260504190037 | 21 | 215 | 6.4 | 19.3 | 0.00 | 0.00 | 0.00 | 43 | 1011.7 |
| 20260504184533 | 21 | 200 | 11.3 | 24.1 | 0.00 | 0.00 | 0.00 | 40 | 1012.0 |
| 20260504183032 | 21 | 182 | 9.7 | 19.3 | 0.00 | 0.00 | 0.00 | 41 | 1012.0 |
| 20260504181531 | 21 | 182 | 11.3 | 17.7 | 0.00 | 0.00 | 0.00 | 41 | 1012.1 |
| 20260504180029 | 21 | 129 | 6.4 | 17.7 | 0.00 | 0.00 | 0.00 | 43 | 1012.4 |
| 20260504174527 | 21 | 193 | 8.0 | 19.3 | 0.00 | 0.00 | 0.00 | 43 | 1012.5 |
| 20260504173025 | 21 | 156 | 8.0 | 19.3 | 0.00 | 0.00 | 0.00 | 42 | 1012.7 |
| 20260504171531 | 20 | 154 | 4.8 | 16.1 | 0.00 | 0.00 | 0.00 | 45 | 1012.7 |
| 20260504081537 | 8 | 267 | 0.0 | 3.2 | 0.00 | 0.00 | 0.00 | 67 | 1015.6 |
| 20260504050025 | 8 | 251 | 0.0 | 0.0 | 0.00 | 0.00 | 0.00 | 67 | 1015.7 |
| 20260504044525 | 8 | 251 | 0.0 | 4.8 | 0.00 | 0.00 | 0.00 | 66 | 1015.7 |
| 20260504043033 | 8 | 278 | 3.2 | 11.3 | 0.00 | 0.00 | 0.00 | 67 | 1015.7 |
| 20260504041522 | 7 | 229 | 0.0 | 6.4 | 0.00 | 0.00 | 0.00 | 69 | 1015.7 |
| 20260504040023 | 8 | 316 | 0.0 | 3.2 | 0.00 | 0.00 | 0.00 | 69 | 1015.5 |
| 20260504034516 | 8 | 316 | 0.0 | 0.0 | 0.00 | 0.00 | 0.00 | 67 | 1015.4 |
| 20260504033015 | 8 | 316 | 1.6 | 4.8 | 0.00 | 0.00 | 0.00 | 66 | 1015.2 |
| 20260504031514 | 8 | 255 | 1.6 | 3.2 | 0.00 | 0.00 | 0.00 | 63 | 1015.2 |
| 20260504030016 | 9 | 249 | 0.0 | 1.6 | 0.00 | 0.00 | 0.00 | 62 | 1015.1 |
| 20260504024515 | 9 | 248 | 0.0 | 4.8 | 0.00 | 0.00 | 0.00 | 59 | 1015.2 |
| 20260504023016 | 10 | 260 | 0.0 | 3.2 | 0.00 | 0.00 | 0.00 | 58 | 1015.0 |
| 20260504021514 | 10 | 230 | 0.0 | 3.2 | 0.00 | 0.00 | 0.00 | 55 | 1015.1 |
| 20260504020011 | 10 | 230 | 0.0 | 1.6 | 0.00 | 0.00 | 0.00 | 53 | 1015.1 |
| 20260504014511 | 10 | 230 | 1.6 | 6.4 | 0.00 | 0.00 | 0.00 | 50 | 1015.0 |
| 20260504013012 | 11 | 234 | 1.6 | 9.7 | 0.00 | 0.00 | 0.00 | 48 | 1015.0 |
| 20260504011518 | 11 | 269 | 0.0 | 3.2 | 0.00 | 0.00 | 0.00 | 48 | 1014.7 |
| 20260504010009 | 12 | 280 | 0.0 | 0.0 | 0.00 | 0.00 | 0.00 | 47 | 1014.6 |
| 20260504004509 | 13 | 280 | 0.0 | 0.0 | 0.00 | 0.00 | 0.00 | 45 | 1014.5 |
| 20260504003008 | 13 | 280 | 0.0 | 1.6 | 0.00 | 0.00 | 0.00 | 42 | 1014.4 |
| 20260504001507 | 14 | 280 | 0.0 | 3.2 | 0.00 | 0.00 | 0.00 | 41 | 1014.2 |
| 20260504000007 | 15 | 329 | 0.0 | 6.4 | 0.00 | 0.00 | 0.00 | 38 | 1014.2 |
| 20260503234506 | 15 | 305 | 3.2 | 11.3 | 0.00 | 0.00 | 0.00 | 35 | 1013.9 |
| 20260503233005 | 16 | 343 | 3.2 | 12.9 | 0.00 | 0.00 | 0.00 | 34 | 1013.7 |
| 20260503231505 | 16 | 355 | 3.2 | 22.5 | 0.00 | 0.00 | 0.00 | 33 | 1013.7 |
| 20260503230004 | 16 | 302 | 6.4 | 17.7 | 0.00 | 0.00 | 0.00 | 33 | 1013.7 |
| 20260503224504 | 16 | 336 | 9.7 | 25.7 | 0.00 | 0.00 | 0.00 | 32 | 1013.9 |
| 20260503223002 | 16 | 333 | 8.0 | 17.7 | 0.00 | 0.00 | 0.00 | 32 | 1013.7 |
| 20260503221501 | 16 | 331 | 9.7 | 27.4 | 0.00 | 0.00 | 0.00 | 32 | 1013.8 |
| 20260503220001 | 16 | 286 | 6.4 | 17.7 | 0.00 | 0.00 | 0.00 | 32 | 1013.8 |